Tracking 27097 objects as of 29-Mar-2023
HD Live streaming from Space Station
objects crossing your sky now

SL-16 DEB

Track SL-16 DEB now!
10-day predictions


NORAD ID: 23410
Int'l Code: 1994-077G
Perigee: 848.5 km
Apogee: 1,177.0 km
Inclination: 71.0 °
Period: 105.2 minutes
Semi major axis: 7383 km
RCS: 0.0892 m2 (small)
Launch date: November 24, 1994
Source: Commonwealth of Independent States (former USSR) (CIS)
Launch site: TYURATAM MISSILE AND SPACE COMPLEX (TTMTR)

Note: This is SATELLITE DEBRIS
Your satellite tracking list
Your tracking list is empty




NASA's NSSDC Master Catalog

Two Line Element Set (TLE):
1 23410U 94077G   23087.95718959  .00000111  00000-0  15162-3 0  9991
2 23410  70.9780 296.6430 0222453 342.6175  82.8169 13.68313331415140
Source of the keplerian elements: AFSPC